Weather History for Bad Axe, MI

Change the Weather History Date:

Saturday, February 23, 2013

  Actual Average (KP58) Record (KP58)
Temperature  
Mean Temperature 28 °F -  
Max Temperature 32 °F 30 °F 39 °F (1998)
Min Temperature 25 °F 19 °F 8 °F (2011)
Degree Days  
Heating Degree Days 36    
Moisture  
Dew Point 26 °F    
Average Humidity 84    
Maximum Humidity 98    
Minimum Humidity 76    
Precipitation  
Precipitation 0.00 in - - ()
Sea Level Pressure  
Sea Level Pressure 29.84 in    
Wind  
Wind Speed 9 mph (SW)    
Max Wind Speed 14 mph    
Max Gust Speed 20 mph    
Visibility 8 miles    
Events Snow    
Averages and records for this station are not official NWS values.
T = Trace of Precipitation, MM = Missing Value Source: NWS Daily Summary

Daily Weather History Graph

Daily Weather History Graph

Search for Another Location

Airport:

Trip Planner

Search our weather history database for the weather conditions in past years. The results will help you decide how hot, cold, wet, or windy it might be!

Date:

Astronomy

Feb. 23, 2013 Rise Set
Actual Time 7:18 AM EST 6:13 PM EST
Civil Twilight 6:49 AM EST 6:42 PM EST
Nautical Twilight 6:15 AM EST 7:15 PM EST
Astronomical Twilight 5:42 AM EST 7:48 PM EST
Moon 4:20 PM EST (2/23) 5:42 AM EST (2/23)
Length of Visible Light 11h 53m
Length of Day
10h 54m
Waxing Gibbous, 95% of the Moon is Illuminated
Feb 23
Waxing Gibbous
Feb 25
Full
Mar 4
Last Quarter
Mar 11
New
Mar 19
First Quarter

Hourly Weather History & Observations

Time (EST) Temp. Windchill Dew Point Humidity Pressure Visibility Wind Dir Wind Speed Gust Speed Precip Events Conditions
12:13 AM 31.8 °F 24.6 °F 31.1 °F 97% 29.84 in 7.0 mi SSW 8.1 mph - N/A   Overcast
12:54 AM 32.0 °F 24.8 °F 31.1 °F 96% 29.83 in 7.0 mi SSW 8.1 mph - N/A   Overcast
1:13 AM 32.0 °F 24.2 °F 31.5 °F 98% 29.83 in 7.0 mi SSW 9.2 mph - N/A   Overcast
1:34 AM 32.2 °F 25.8 °F 31.6 °F 98% 29.83 in 10.0 mi SW 6.9 mph - N/A   Overcast
1:54 AM 32.4 °F 25.3 °F 31.6 °F 97% 29.83 in 10.0 mi SW 8.1 mph - N/A   Overcast
2:13 AM 32.5 °F 25.5 °F 31.6 °F 96% 29.83 in 10.0 mi SW 8.1 mph - N/A   Overcast
2:34 AM 32.4 °F 26.0 °F 31.5 °F 96% 29.83 in 7.0 mi SW 6.9 mph - N/A   Overcast
2:54 AM 32.5 °F 25.5 °F 31.1 °F 94% 29.83 in 10.0 mi SW 8.1 mph - N/A   Overcast
3:13 AM 32.5 °F 25.5 °F 30.9 °F 94% 29.83 in 10.0 mi SW 8.1 mph - N/A   Overcast
3:34 AM 32.4 °F 24.0 °F 30.2 °F 92% 29.82 in 10.0 mi SW 10.4 mph - N/A   Overcast
3:54 AM 32.2 °F 23.2 °F 29.3 °F 89% 29.82 in 10.0 mi WSW 11.5 mph 16.1 mph N/A   Overcast
4:13 AM 32.0 °F 23.0 °F 28.9 °F 88% 29.82 in 4.0 mi WSW 11.5 mph - N/A   Overcast
4:34 AM 31.1 °F 21.9 °F 28.9 °F 92% 29.82 in 5.0 mi SW 11.5 mph 17.3 mph N/A   Overcast
4:54 AM 31.1 °F 23.7 °F 28.0 °F 88% 29.82 in 10.0 mi WSW 8.1 mph - N/A   Overcast
5:14 AM 31.1 °F 23.7 °F 27.5 °F 87% 29.82 in 10.0 mi SW 8.1 mph - N/A   Overcast
5:34 AM 31.1 °F 23.1 °F 27.1 °F 85% 29.82 in 10.0 mi SW 9.2 mph - N/A   Overcast
5:53 AM 30.9 °F 22.8 °F 26.1 °F 82% 29.83 in 10.0 mi SW 9.2 mph - N/A   Overcast
6:14 AM 30.6 °F 20.7 °F 25.3 °F 81% 29.83 in 10.0 mi WSW 12.7 mph - N/A   Overcast
6:34 AM 29.8 °F 19.8 °F 25.5 °F 84% 29.83 in 10.0 mi SW 12.7 mph - N/A   Overcast
6:53 AM 29.3 °F 20.8 °F 25.7 °F 86% 29.83 in 10.0 mi SW 9.2 mph 16.1 mph N/A   Overcast
7:14 AM 29.3 °F 20.2 °F 25.7 °F 86% 29.84 in 10.0 mi SW 10.4 mph - N/A Snow Light Snow
7:34 AM 29.3 °F 22.3 °F 25.3 °F 85% 29.84 in 10.0 mi SW 6.9 mph - N/A   Overcast
7:53 AM 29.3 °F 23.2 °F 25.3 °F 85% 29.84 in 7.0 mi SW 5.8 mph - N/A Snow Light Snow
8:14 AM 29.1 °F 20.6 °F 24.8 °F 84% 29.84 in 10.0 mi SW 9.2 mph - N/A Snow Light Snow
8:34 AM 29.1 °F 20.6 °F 24.8 °F 84% 29.84 in 7.0 mi SW 9.2 mph - N/A Snow Light Snow
8:54 AM 29.1 °F 19.4 °F 25.0 °F 85% 29.84 in 5.0 mi SW 11.5 mph - N/A Snow Light Snow
9:14 AM 28.9 °F 19.8 °F 25.3 °F 86% 29.83 in 2.0 mi SW 10.4 mph - N/A Snow Light Snow
9:33 AM 28.9 °F 19.2 °F 25.5 °F 87% 29.83 in 2.0 mi SW 11.5 mph - N/A Snow Light Snow
9:54 AM 29.1 °F 20.6 °F 25.7 °F 87% 29.84 in 2.5 mi SW 9.2 mph - N/A Snow Light Snow
10:14 AM 29.5 °F 21.8 °F 26.2 °F 88% 29.83 in 4.0 mi SSW 8.1 mph - N/A Snow Light Snow
10:54 AM 30.6 °F 21.8 °F 25.5 °F 82% 29.83 in 10.0 mi SW 10.4 mph 19.6 mph N/A Snow Light Snow
11:33 AM 30.7 °F 20.4 °F 25.7 °F 82% 29.83 in 10.0 mi WSW 13.8 mph 19.6 mph N/A   Overcast
11:54 AM 31.1 °F 21.4 °F 26.1 °F 82% 29.84 in 10.0 mi WSW 12.7 mph - N/A   Overcast
12:14 PM 31.1 °F 22.4 °F 26.1 °F 82% 29.84 in 10.0 mi WSW 10.4 mph - N/A   Overcast
12:34 PM 31.1 °F 22.4 °F 26.1 °F 82% 29.84 in 10.0 mi WSW 10.4 mph - N/A Snow Light Snow
12:54 PM 31.6 °F 22.6 °F 26.2 °F 80% 29.83 in 10.0 mi WSW 11.5 mph 17.3 mph N/A   Overcast
1:14 PM 31.3 °F 21.1 °F 25.7 °F 80% 29.83 in 10.0 mi WSW 13.8 mph 18.4 mph N/A   Overcast
1:34 PM 31.5 °F 22.3 °F 25.7 °F 79% 29.83 in 10.0 mi WSW 11.5 mph - N/A   Overcast
1:54 PM 32.0 °F 22.5 °F 25.7 °F 78% 29.83 in 10.0 mi WSW 12.7 mph - N/A   Overcast
2:14 PM 32.0 °F 23.0 °F 25.3 °F 76% 29.83 in 10.0 mi WSW 11.5 mph 17.3 mph N/A   Overcast
2:34 PM 31.8 °F 21.8 °F 25.2 °F 76% 29.83 in 10.0 mi SW 13.8 mph - N/A   Overcast
2:54 PM 31.6 °F 22.1 °F 25.0 °F 76% 29.82 in 10.0 mi WSW 12.7 mph - N/A   Overcast
3:14 PM 31.6 °F 23.1 °F 25.3 °F 78% 29.82 in 10.0 mi SW 10.4 mph - N/A   Overcast
3:34 PM 31.6 °F 23.1 °F 24.8 °F 76% 29.83 in 10.0 mi WSW 10.4 mph 18.4 mph N/A   Overcast
3:54 PM 30.9 °F 21.2 °F 24.4 °F 77% 29.83 in 7.0 mi SW 12.7 mph - N/A Snow Light Snow
4:14 PM 31.1 °F 24.5 °F 24.8 °F 77% 29.83 in 10.0 mi WSW 6.9 mph - N/A   Overcast
4:34 PM 31.1 °F 21.9 °F 24.4 °F 76% 29.83 in 10.0 mi SW 11.5 mph 16.1 mph N/A   Overcast
4:54 PM 30.0 °F 21.1 °F 24.6 °F 80% 29.84 in 5.0 mi WSW 10.4 mph 16.1 mph N/A Snow Light Snow
5:15 PM 29.7 °F 20.7 °F 24.8 °F 82% 29.84 in 10.0 mi SW 10.4 mph - N/A   Overcast
5:34 PM 29.3 °F 20.2 °F 23.5 °F 79% 29.84 in 10.0 mi WSW 10.4 mph 16.1 mph N/A   Overcast
5:54 PM 29.1 °F 20.6 °F 23.0 °F 78% 29.85 in 10.0 mi WSW 9.2 mph - N/A   Overcast
6:15 PM 29.1 °F 21.3 °F 23.0 °F 78% 29.85 in 10.0 mi SW 8.1 mph - N/A   Overcast
6:34 PM 29.1 °F 20.6 °F 23.0 °F 78% 29.85 in 10.0 mi WSW 9.2 mph - N/A   Overcast
6:54 PM 29.1 °F 22.1 °F 23.0 °F 78% 29.86 in 10.0 mi SW 6.9 mph - N/A   Overcast
7:15 PM 28.9 °F 19.8 °F 23.0 °F 78% 29.87 in 10.0 mi SW 10.4 mph - N/A   Overcast
7:34 PM 28.4 °F 21.2 °F 23.0 °F 80% 29.87 in 10.0 mi SW 6.9 mph - N/A Snow Light Snow
7:54 PM 28.2 °F 19.5 °F 23.7 °F 83% 29.87 in 7.0 mi WSW 9.2 mph - N/A Snow Light Snow
8:15 PM 28.2 °F 18.9 °F 23.0 °F 81% 29.87 in 10.0 mi WSW 10.4 mph - N/A   Overcast
8:34 PM 27.5 °F 18.6 °F 23.0 °F 83% 29.87 in 7.0 mi WSW 9.2 mph - N/A Snow Light Snow
8:55 PM 27.5 °F 18.6 °F 23.0 °F 83% 29.87 in 10.0 mi SW 9.2 mph - N/A Snow Light Snow
9:14 PM 27.1 °F 17.5 °F 22.8 °F 84% 29.87 in 10.0 mi WSW 10.4 mph - N/A Snow Light Snow
9:34 PM 26.8 °F 17.7 °F 22.1 °F 83% 29.87 in 10.0 mi WSW 9.2 mph - N/A   Overcast
9:55 PM 26.6 °F 18.2 °F 22.1 °F 83% 29.86 in 10.0 mi WSW 8.1 mph - N/A   Overcast
10:14 PM 26.4 °F 17.3 °F 22.1 °F 84% 29.87 in 10.0 mi WSW 9.2 mph - N/A   Overcast
10:34 PM 26.2 °F 17.1 °F 22.1 °F 84% 29.86 in 10.0 mi WSW 9.2 mph - N/A Snow Light Snow
10:54 PM 26.2 °F 17.8 °F 22.1 °F 84% 29.86 in 5.0 mi WSW 8.1 mph - N/A Snow Light Snow
11:13 PM 25.7 °F 16.4 °F 22.5 °F 88% 29.85 in 1.8 mi WSW 9.2 mph - N/A Snow Light Snow
11:34 PM 25.5 °F 17.8 °F 22.1 °F 87% 29.85 in 5.0 mi SW 6.9 mph - N/A Snow Light Snow
11:54 PM 25.2 °F 18.3 °F 22.1 °F 88% 29.85 in 4.0 mi WSW 5.8 mph - N/A Snow Light Snow